CT2IRK-11 Weather Reports


time (UTC)temp
C
wind
direction
speed
KPH
gust
KPH
rain 1hr
cm
rain 24hr
cm
rain mn
cm
humidity
%
barometer
mb
20260903012005 20 225 0.0 0.0 0.00 0.00 0.00 83 1012.1
20260903011005 20 225 0.0 0.0 0.00 0.00 0.00 81 1012.1
20260903005006 21 193 0.0 0.0 0.00 0.00 0.00 79 1012.3
20260903004005 21 270 0.0 0.0 0.00 0.00 0.00 74 1012.3
20260903003005 23 12 0.0 0.0 0.00 0.00 0.00 65 1012.2
20260903002006 24 35 0.0 12.9 0.00 0.00 0.00 54 1012.3
20260903001006 24 54 9.7 16.1 0.00 0.00 0.00 53 1012.2
20260903000005 24 68 12.9 14.5 0.00 0.00 0.00 55 1012.3
20260902235006 24 54 12.9 14.5 0.00 0.00 0.00 57 1012.1
20260902234005 24 78 12.9 16.1 0.00 0.00 0.00 58 1012.1
20260902233006 23 68 14.5 16.1 0.00 0.00 0.00 60 1012.0
20260902232006 23 45 12.9 16.1 0.00 0.00 0.00 62 1012.0
20260902231006 23 45 14.5 19.3 0.00 0.00 0.00 63 1012.2
20260902230007 23 45 11.3 19.3 0.00 0.00 0.00 66 1012.3
20260902225006 23 65 12.9 19.3 0.00 0.00 0.00 67 1012.3
20260902224005 23 48 14.5 19.3 0.00 0.00 0.00 67 1012.3
20260902223006 23 53 16.1 19.3 0.00 0.00 0.00 68 1012.2
20260902222005 23 56 14.5 20.9 0.00 0.00 0.00 68 1012.2
20260902221006 23 64 14.5 19.3 0.00 0.00 0.00 68 1012.3
20260902215006 24 45 9.7 20.9 0.00 0.00 0.00 67 1012.3
20260902214005 24 56 12.9 20.9 0.00 0.00 0.00 67 1012.3
20260902213005 24 72 12.9 16.1 0.00 0.00 0.00 66 1012.1
20260902212006 24 59 9.7 20.9 0.00 0.00 0.00 65 1012.3
20260902211005 25 64 16.1 19.3 0.00 0.00 0.00 64 1012.2
20260902205005 25 50 12.9 16.1 0.00 0.00 0.00 60 1012.2
20260902204006 25 85 14.5 16.1 0.00 0.00 0.00 59 1012.2
20260902203005 26 51 11.3 16.1 0.00 0.00 0.00 59 1012.1
20260902202006 26 67 11.3 14.5 0.00 0.00 0.00 58 1012.0
20260902201010 26 47 11.3 16.1 0.00 0.00 0.00 58 1011.7
20260902194005 27 49 3.2 16.1 0.00 0.00 0.00 57 1011.7
20260902193007 27 45 0.0 9.7 0.00 0.00 0.00 57 1011.4
20260902192005 27 32 0.0 1.6 0.00 0.00 0.00 55 1011.3
20260902191005 28 57 0.0 11.3 0.00 0.00 0.00 55 1011.3
20260902190006 28 31 9.7 12.9 0.00 0.00 0.00 54 1011.3
20260902185005 29 31 6.4 14.5 0.00 0.00 0.00 53 1011.4
20260902184005 30 330 9.7 14.5 0.00 0.00 0.00 51 1011.4
20260902182005 31 0 0.0 11.3 0.00 0.00 0.00 49 1011.1
20260902181005 31 36 9.7 12.9 0.00 0.00 0.00 48 1011.2
20260902180007 32 42 8.0 12.9 0.00 0.00 0.00 44 1011.0
20260902175005 36 292 0.0 4.8 0.00 0.00 0.00 19 1010.9
20260902174005 37 259 1.6 4.8 0.00 0.00 0.00 19 1010.9
20260902173005 37 279 0.0 4.8 0.00 0.00 0.00 18 1010.8
20260902172006 36 270 0.0 8.0 0.00 0.00 0.00 17 1010.9
20260902171011 36 270 0.0 0.0 0.00 0.00 0.00 16 1011.1
20260902170005 35 16 3.2 8.0 0.00 0.00 0.00 18 1011.3
20260902165025 36 311 0.0 8.0 0.00 0.00 0.00 20 1011.2
20260902163005 36 279 4.8 9.7 0.00 0.00 0.00 22 1011.1
20260902162005 36 248 8.0 9.7 0.00 0.00 0.00 23 1011.2
20260902161005 36 324 6.4 9.7 0.00 0.00 0.00 23 1011.5
20260902155005 36 248 9.7 9.7 0.00 0.00 0.00 24 1011.6
20260902154005 36 270 3.2 11.3 0.00 0.00 0.00 24 1011.6
20260902153005 37 283 0.0 8.0 0.00 0.00 0.00 24 1011.6
20260902152005 37 270 0.0 8.0 0.00 0.00 0.00 23 1011.7
20260902151005 36 276 0.0 9.7 0.00 0.00 0.00 26 1011.8
20260902150005 35 344 4.8 12.9 0.00 0.00 0.00 27 1012.0
20260902145004 35 274 6.4 12.9 0.00 0.00 0.00 25 1012.0
20260902143005 35 311 0.0 9.7 0.00 0.00 0.00 28 1012.0
20260902141005 34 59 6.4 11.3 0.00 0.00 0.00 31 1012.2
20260902140005 35 279 8.0 11.3 0.00 0.00 0.00 28 1012.2
20260902135005 35 270 4.8 9.7 0.00 0.00 0.00 29 1012.2
20260902133005 34 282 6.4 9.7 0.00 0.00 0.00 29 1012.4
20260902132005 34 270 4.8 9.7 0.00 0.00 0.00 31 1012.4
20260902131005 34 303 0.0 9.7 0.00 0.00 0.00 34 1012.6
20260902130005 33 336 6.4 9.7 0.00 0.00 0.00 36 1012.6
20260902125005 33 352 3.2 11.3 0.00 0.00 0.00 39 1012.7
20260902124005 32 270 1.6 11.3 0.00 0.00 0.00 42 1012.7
20260902123004 32 249 4.8 11.3 0.00 0.00 0.00 42 1013.1
20260902122005 32 289 8.0 9.7 0.00 0.00 0.00 41 1013.1
20260902121005 32 13 1.6 11.3 0.00 0.00 0.00 44 1013.2
20260902120004 31 53 3.2 8.0 0.00 0.00 0.00 46 1013.3
20260902115004 31 274 8.0 9.7 0.00 0.00 0.00 45 1013.5
20260902114005 30 38 6.4 11.3 0.00 0.00 0.00 48 1013.5
20260902113004 30 351 8.0 11.3 0.00 0.00 0.00 49 1013.6
20260902111005 29 15 6.4 9.7 0.00 0.00 0.00 51 1013.7
20260902110008 28 322 6.4 11.3 0.00 0.00 0.00 55 1013.8
20260902105004 27 11 8.0 11.3 0.00 0.00 0.00 56 1013.9
20260902104005 27 44 8.0 12.9 0.00 0.00 0.00 57 1013.9
20260902102005 26 25 8.0 11.3 0.00 0.00 0.00 60 1014.0
20260902100004 25 52 8.0 14.5 0.00 0.00 0.00 66 1014.0
20260902095005 24 29 9.7 14.5 0.00 0.00 0.00 68 1013.9
20260902094004 24 81 8.0 12.9 0.00 0.00 0.00 68 1013.9
20260902092005 23 60 11.3 16.1 0.00 0.00 0.00 72 1013.8
20260902091004 23 64 11.3 16.1 0.00 0.00 0.00 74 1013.6
20260902090005 23 51 11.3 14.5 0.00 0.00 0.00 74 1013.6
20260902085005 22 50 12.9 14.5 0.00 0.00 0.00 77 1013.7
20260902084004 22 76 11.3 14.5 0.00 0.00 0.00 75 1013.7
20260902083004 22 72 9.7 12.9 0.00 0.00 0.00 75 1013.7
20260902082005 22 356 0.0 0.0 0.00 0.00 0.00 77 1013.5
20260902081004 22 348 0.0 0.0 0.00 0.00 0.00 76 1013.5
20260902080004 22 37 0.0 0.0 0.00 0.00 0.00 76 1013.6
20260902075004 21 208 0.0 0.0 0.00 0.00 0.00 76 1013.4
20260902073004 18 270 0.0 0.0 0.00 0.00 0.00 88 1013.3
20260902071005 17 219 0.0 0.0 0.00 0.00 0.00 97 1013.1
20260902070007 16 225 0.0 0.0 0.00 0.00 0.00 99 1012.9
20260902065005 15 224 0.0 0.0 0.00 0.00 0.00 99 1012.7
20260902064006 14 215 0.0 0.0 0.00 0.00 0.00 99 1012.7
20260902063006 14 238 0.0 0.0 0.00 0.00 0.00 99 1012.4
20260902062005 14 225 0.0 0.0 0.00 0.00 0.00 99 1012.5
20260902061007 14 202 0.0 0.0 0.00 0.00 0.00 99 1012.3
20260902060006 14 202 0.0 0.0 0.00 0.00 0.00 99 1012.2
20260902055006 14 180 0.0 0.0 0.00 0.00 0.00 99 1012.1
20260902054005 14 225 0.0 0.0 0.00 0.00 0.00 99 1012.1
20260902052006 15 270 0.0 0.0 0.00 0.00 0.00 99 1012.1
20260902051006 15 225 0.0 0.0 0.00 0.00 0.00 99 1012.1
20260902050008 15 248 0.0 0.0 0.00 0.00 0.00 99 1012.1
20260902045005 15 161 0.0 0.0 0.00 0.00 0.00 99 1012.0
20260902044006 15 248 0.0 0.0 0.00 0.00 0.00 99 1012.0
20260902043005 15 202 0.0 0.0 0.00 0.00 0.00 99 1012.0
20260902042006 15 248 0.0 0.0 0.00 0.00 0.00 99 1012.2
20260902041005 15 225 0.0 0.0 0.00 0.00 0.00 99 1012.1
20260902040006 16 279 0.0 0.0 0.00 0.00 0.00 99 1012.3
20260902035005 16 180 0.0 0.0 0.00 0.00 0.00 99 1012.4
20260902034005 16 246 0.0 0.0 0.00 0.00 0.00 99 1012.4
20260902033005 16 90 0.0 0.0 0.00 0.00 0.00 99 1012.4
20260902031005 16 237 0.0 0.0 0.00 0.00 0.00 99 1012.5
20260902030006 17 223 0.0 0.0 0.00 0.00 0.00 98 1012.4
20260902025005 17 257 0.0 9.7 0.00 0.00 0.00 98 1012.2
20260902024006 17 294 0.0 11.3 0.00 0.00 0.00 96 1012.2
20260902022005 18 34 11.3 14.5 0.00 0.00 0.00 94 1012.5
20260902021005 18 23 9.7 14.5 0.00 0.00 0.00 93 1012.4
20260902020005 18 31 11.3 16.1 0.00 0.00 0.00 92 1012.6
20260902015005 18 58 11.3 16.1 0.00 0.00 0.00 92 1012.4
20260902014005 18 35 11.3 16.1 0.00 0.00 0.00 93 1012.4
20260902013005 18 35 11.3 16.1 0.00 0.00 0.00 93 1012.5